• In Hungary
  • List of Countries
  • For 7 days
  • Water Temperature
  • Satellite Maps
  • Weather Map
  • News
  • Weather Widgets
  • user-avatar
    Login

    Hourly Weather Komarkov

    Today, 17 December, Sunday

    Time Temperature Precipitation Wind Pressure Humidity
    00:00 +4°C° 0 mm 7 mps 760 mmHg 86%
    01:00 +4°C° 0 mm 7 mps 760 mmHg 86%
    02:00 +4°C° 0 mm 7 mps 760 mmHg 85%
    03:00 +4°C° 0 mm 7 mps 760 mmHg 84%
    04:00 +4°C° 0 mm 7 mps 760 mmHg 85%
    05:00 +4°C° 0 mm 7 mps 759 mmHg 85%
    06:00 +4°C° 0 mm 7 mps 759 mmHg 85%
    07:00 +4°C° 0 mm 7 mps 759 mmHg 85%
    08:00 +4°C° 0 mm 7 mps 760 mmHg 84%
    09:00 +4°C° 0 mm 7 mps 760 mmHg 84%
    10:00 +5°C° 0 mm 7 mps 760 mmHg 80%
    11:00 +5°C° 0 mm 7 mps 760 mmHg 76%
    12:00 +6°C° 0 mm 8 mps 760 mmHg 73%
    13:00 +6°C° 0 mm 7 mps 759 mmHg 73%
    14:00 +6°C° 0 mm 7 mps 759 mmHg 73%
    15:00 +6°C° 0 mm 7 mps 759 mmHg 73%
    16:00 +6°C° 0 mm 7 mps 759 mmHg 75%
    17:00 +5°C° 0 mm 7 mps 759 mmHg 78%
    18:00 +5°C° 0 mm 7 mps 759 mmHg 81%
    19:00 +5°C° 0 mm 7 mps 759 mmHg 81%
    20:00 +5°C° 0 mm 7 mps 759 mmHg 81%
    21:00 +5°C° 0 mm 6 mps 759 mmHg 81%
    22:00 +5°C° 0 mm 6 mps 759 mmHg 81%
    23:00 +5°C° 0 mm 6 mps 759 mmHg 82%

    Tomorrow, 18 December, Monday

    Time Temperature Precipitation Wind Pressure Humidity
    00:00 +5°C° 0 mm 6 mps 759 mmHg 82%
    01:00 +5°C° 0 mm 6 mps 759 mmHg 81%
    02:00 +5°C° 0 mm 6 mps 758 mmHg 81%
    03:00 +5°C° 0 mm 6 mps 758 mmHg 81%
    04:00 +5°C° 0 mm 6 mps 758 mmHg 81%
    05:00 +5°C° 0 mm 7 mps 758 mmHg 81%
    06:00 +5°C° 0 mm 7 mps 758 mmHg 82%
    07:00 +5°C° 0 mm 7 mps 758 mmHg 82%
    08:00 +5°C° 0 mm 7 mps 758 mmHg 82%
    09:00 +5°C° 0 mm 7 mps 758 mmHg 82%
    10:00 +5°C° 0 mm 7 mps 758 mmHg 80%
    11:00 +6°C° 0 mm 7 mps 758 mmHg 78%
    12:00 +6°C° 0 mm 8 mps 758 mmHg 76%
    13:00 +6°C° 0.1 mm 7 mps 758 mmHg 75%
    14:00 +8°C° 0.1 mm 6 mps 758 mmHg 75%
    15:00 +8°C° 0.1 mm 6 mps 757 mmHg 75%
    16:00 +7°C° 0.3 mm 6 mps 758 mmHg 78%
    17:00 +7°C° 0.3 mm 6 mps 758 mmHg 80%
    18:00 +7°C° 0.3 mm 5 mps 758 mmHg 83%
    19:00 +7°C° 0.1 mm 6 mps 758 mmHg 83%
    20:00 +5°C° 0.1 mm 6 mps 758 mmHg 83%
    21:00 +5°C° 0.1 mm 6 mps 758 mmHg 83%
    22:00 +6°C° 0.3 mm 5 mps 758 mmHg 84%
    23:00 +6°C° 0.3 mm 5 mps 758 mmHg 86%

    Day after tomorrow, 19 December, Tuesday

    Time Temperature Precipitation Wind Pressure Humidity
    00:00 +6°C° 0.3 mm 4 mps 758 mmHg 88%
    01:00 +6°C° 0.5 mm 4 mps 758 mmHg 88%
    02:00 +5°C° 0.5 mm 4 mps 758 mmHg 89%
    03:00 +5°C° 0.5 mm 4 mps 758 mmHg 90%
    04:00 +5°C° 0.7 mm 4 mps 758 mmHg 90%
    05:00 +5°C° 0.7 mm 4 mps 758 mmHg 91%
    06:00 +5°C° 0.7 mm 4 mps 758 mmHg 91%
    07:00 +5°C° 1.1 mm 4 mps 758 mmHg 91%
    08:00 +5°C° 1.1 mm 4 mps 758 mmHg 91%
    09:00 +5°C° 1.1 mm 3 mps 759 mmHg 92%
    10:00 +5°C° 0.4 mm 3 mps 759 mmHg 91%
    11:00 +5°C° 0.4 mm 3 mps 759 mmHg 90%
    12:00 +7°C° 0.4 mm 3 mps 759 mmHg 89%
    13:00 +7°C° 0.4 mm 3 mps 759 mmHg 89%
    14:00 +7°C° 0.4 mm 3 mps 759 mmHg 89%
    15:00 +6°C° 0.4 mm 2 mps 759 mmHg 88%
    16:00 +6°C° 0 mm 2 mps 760 mmHg 89%
    17:00 +5°C° 0 mm 2 mps 760 mmHg 89%
    18:00 +5°C° 0 mm 2 mps 760 mmHg 89%
    19:00 +5°C° 0 mm 2 mps 760 mmHg 87%
    20:00 +4°C° 0 mm 2 mps 761 mmHg 86%
    21:00 +4°C° 0 mm 2 mps 761 mmHg 84%
    22:00 +4°C° 0 mm 2 mps 761 mmHg 83%
    23:00 +3°C° 0 mm 2 mps 762 mmHg 82%

    20 December, Wednesday

    Time Temperature Precipitation Wind Pressure Humidity
    00:00 +3°C° 0 mm 2 mps 762 mmHg 82%
    01:00 +3°C° 0 mm 2 mps 762 mmHg 81%
    02:00 +3°C° 0 mm 2 mps 763 mmHg 81%
    03:00 +3°C° 0 mm 2 mps 763 mmHg 81%
    04:00 +3°C° 0 mm 2 mps 763 mmHg 80%
    05:00 +3°C° 0 mm 2 mps 763 mmHg 79%
    06:00 +3°C° 0 mm 2 mps 763 mmHg 78%
    07:00 +2°C° 0.1 mm 2 mps 764 mmHg 77%
    08:00 +2°C° 0.1 mm 2 mps 764 mmHg 77%
    09:00 +3°C° 0.1 mm 1 mps 764 mmHg 76%
    10:00 +4°C° 0.1 mm 1 mps 764 mmHg 73%
    11:00 +4°C° 0.1 mm 2 mps 764 mmHg 70%
    12:00 +4°C° 0.1 mm 2 mps 764 mmHg 67%
    13:00 +5°C° 0 mm 2 mps 764 mmHg 67%
    14:00 +4°C° 0 mm 3 mps 764 mmHg 67%
    15:00 +4°C° 0 mm 3 mps 764 mmHg 66%
    16:00 +3°C° 0 mm 3 mps 764 mmHg 71%
    17:00 +3°C° 0 mm 3 mps 764 mmHg 75%
    18:00 +2°C° 0 mm 3 mps 764 mmHg 79%
    19:00 +3°C° 0 mm 3 mps 764 mmHg 82%
    20:00 +3°C° 0 mm 3 mps 764 mmHg 85%
    21:00 +3°C° 0 mm 3 mps 764 mmHg 87%
    22:00 +3°C° 0.1 mm 3 mps 764 mmHg 89%
    23:00 +4°C° 0.1 mm 3 mps 764 mmHg 91%

    21 December, Thursday

    Time Temperature Precipitation Wind Pressure Humidity
    00:00 +4°C° 0.1 mm 3 mps 764 mmHg 92%
    01:00 +4°C° 0.1 mm 3 mps 763 mmHg 92%
    02:00 +3°C° 0.1 mm 3 mps 763 mmHg 92%
    03:00 +3°C° 0.1 mm 4 mps 763 mmHg 92%
    04:00 +3°C° 0.5 mm 4 mps 763 mmHg 91%
    05:00 +3°C° 0.5 mm 4 mps 762 mmHg 90%
    06:00 +3°C° 0.5 mm 4 mps 762 mmHg 89%
    07:00 +2°C° 0.7 mm 5 mps 762 mmHg 88%
    08:00 +2°C° 0.7 mm 5 mps 762 mmHg 87%
    09:00 +1°C° 0.7 mm 5 mps 762 mmHg 85%
    10:00 +1°C° 0.5 mm 5 mps 761 mmHg 85%
    11:00 +1°C° 0.5 mm 5 mps 761 mmHg 85%
    12:00 +1°C° 0.5 mm 5 mps 760 mmHg 86%
    13:00 +1°C° 0.1 mm 5 mps 759 mmHg 85%
    14:00 +1°C° 0.1 mm 5 mps 759 mmHg 85%
    15:00 +1°C° 0.1 mm 4 mps 758 mmHg 84%
    16:00 +1°C° 0.1 mm 4 mps 758 mmHg 85%
    17:00 +1°C° 0.1 mm 4 mps 758 mmHg 85%
    18:00 +1°C° 0.1 mm 4 mps 757 mmHg 85%
    19:00 +1°C° 0 mm 4 mps 757 mmHg 86%
    20:00 +1°C° 0 mm 4 mps 757 mmHg 86%
    21:00 0°C° 0 mm 4 mps 757 mmHg 87%
    22:00 +2°C° 0 mm 3 mps 756 mmHg 87%
    23:00 +2°C° 0 mm 3 mps 756 mmHg 88%

    22 December, Friday

    Time Temperature Precipitation Wind Pressure Humidity
    00:00 +2°C° 0 mm 3 mps 755 mmHg 89%
    01:00 +2°C° 0 mm 3 mps 755 mmHg 90%
    02:00 +2°C° 0 mm 3 mps 755 mmHg 91%
    03:00 +2°C° 0 mm 3 mps 755 mmHg 93%
    04:00 +3°C° 0 mm 2 mps 755 mmHg 93%
    05:00 +3°C° 0 mm 2 mps 754 mmHg 94%
    06:00 +3°C° 0 mm 2 mps 754 mmHg 94%
    07:00 +3°C° 0 mm 2 mps 754 mmHg 94%
    08:00 +3°C° 0 mm 2 mps 754 mmHg 94%
    09:00 +3°C° 0 mm 2 mps 754 mmHg 94%
    10:00 +4°C° 0 mm 2 mps 754 mmHg 92%
    11:00 +3°C° 0 mm 3 mps 754 mmHg 89%
    12:00 +4°C° 0 mm 3 mps 754 mmHg 87%
    13:00 +4°C° 0 mm 4 mps 753 mmHg 84%
    14:00 +4°C° 0 mm 4 mps 753 mmHg 82%
    15:00 +3°C° 0 mm 5 mps 753 mmHg 79%
    16:00 +2°C° 0 mm 5 mps 753 mmHg 80%
    17:00 +3°C° 0 mm 4 mps 753 mmHg 81%
    18:00 +1°C° 0 mm 4 mps 754 mmHg 81%
    19:00 +1°C° 0 mm 5 mps 754 mmHg 82%
    20:00 +1°C° 0 mm 5 mps 754 mmHg 84%
    21:00 +1°C° 0 mm 6 mps 754 mmHg 85%
    22:00 +1°C° 0 mm 6 mps 754 mmHg 84%
    23:00 -1°C° 0 mm 6 mps 754 mmHg 83%
    Show more